• In Russia
  • List of Countries
  • For 7 days
  • Water Temperature
  • Satellite Maps
  • Weather Map
  • Weather Widgets
  • user-avatar
    Login

    Hourly Weather Baku

    Today, 27 March, Monday

    Time Temperature Precipitation Wind Pressure Humidity
    00:00 +8°C° 0 mm 7 mps 759 mmHg 81%
    01:00 +9°C° 0 mm 7 mps 759 mmHg 78%
    02:00 +9°C° 0 mm 7 mps 759 mmHg 76%
    03:00 +9°C° 0 mm 8 mps 758 mmHg 74%
    04:00 +9°C° 0 mm 7 mps 758 mmHg 72%
    05:00 +9°C° 0 mm 7 mps 758 mmHg 70%
    06:00 +9°C° 0 mm 7 mps 758 mmHg 68%
    07:00 +11°C° 0 mm 7 mps 758 mmHg 59%
    08:00 +14°C° 0 mm 7 mps 758 mmHg 50%
    09:00 +16°C° 0 mm 7 mps 758 mmHg 41%
    10:00 +17°C° 0 mm 8 mps 757 mmHg 37%
    11:00 +19°C° 0 mm 9 mps 757 mmHg 32%
    12:00 +22°C° 0 mm 10 mps 757 mmHg 27%
    13:00 +22°C° 0 mm 10 mps 756 mmHg 27%
    14:00 +23°C° 0 mm 10 mps 756 mmHg 27%
    15:00 +23°C° 0 mm 10 mps 755 mmHg 27%
    16:00 +20°C° 0 mm 8 mps 755 mmHg 35%
    17:00 +17°C° 0 mm 7 mps 756 mmHg 44%
    18:00 +14°C° 0 mm 5 mps 756 mmHg 53%
    19:00 +12°C° 0 mm 5 mps 756 mmHg 61%
    20:00 +11°C° 0 mm 4 mps 756 mmHg 69%
    21:00 +10°C° 0 mm 4 mps 757 mmHg 77%
    22:00 +8°C° 0 mm 4 mps 757 mmHg 79%
    23:00 +8°C° 0 mm 5 mps 757 mmHg 81%

    Tomorrow, 28 March, Tuesday

    Time Temperature Precipitation Wind Pressure Humidity
    00:00 +7°C° 0 mm 5 mps 757 mmHg 83%
    01:00 +7°C° 0 mm 6 mps 757 mmHg 84%
    02:00 +7°C° 0 mm 6 mps 757 mmHg 85%
    03:00 +7°C° 0 mm 6 mps 757 mmHg 87%
    04:00 +6°C° 0 mm 7 mps 758 mmHg 86%
    05:00 +6°C° 0 mm 8 mps 759 mmHg 86%
    06:00 +6°C° 0 mm 9 mps 759 mmHg 86%
    07:00 +7°C° 0 mm 9 mps 760 mmHg 82%
    08:00 +7°C° 0 mm 10 mps 761 mmHg 78%
    09:00 +8°C° 0 mm 10 mps 762 mmHg 75%
    10:00 +8°C° 0 mm 10 mps 762 mmHg 71%
    11:00 +10°C° 0 mm 9 mps 763 mmHg 67%
    12:00 +10°C° 0 mm 9 mps 763 mmHg 63%
    13:00 +10°C° 0 mm 8 mps 763 mmHg 62%
    14:00 +10°C° 0 mm 7 mps 762 mmHg 61%
    15:00 +9°C° 0 mm 6 mps 762 mmHg 60%
    16:00 +9°C° 0 mm 5 mps 762 mmHg 63%
    17:00 +8°C° 0 mm 4 mps 762 mmHg 66%
    18:00 +8°C° 0 mm 3 mps 762 mmHg 69%
    19:00 +8°C° 0 mm 3 mps 762 mmHg 70%
    20:00 +7°C° 0 mm 4 mps 762 mmHg 72%
    21:00 +7°C° 0 mm 4 mps 762 mmHg 73%
    22:00 +7°C° 0 mm 5 mps 762 mmHg 73%
    23:00 +7°C° 0 mm 6 mps 761 mmHg 72%

    Day after tomorrow, 29 March, Wednesday

    Time Temperature Precipitation Wind Pressure Humidity
    00:00 +6°C° 0 mm 7 mps 761 mmHg 72%
    01:00 +6°C° 0 mm 8 mps 760 mmHg 71%
    02:00 +7°C° 0 mm 8 mps 760 mmHg 71%
    03:00 +7°C° 0 mm 9 mps 759 mmHg 70%
    04:00 +6°C° 0 mm 8 mps 759 mmHg 70%
    05:00 +6°C° 0 mm 8 mps 759 mmHg 70%
    06:00 +6°C° 0 mm 7 mps 759 mmHg 70%
    07:00 +8°C° 0 mm 7 mps 759 mmHg 64%
    08:00 +10°C° 0 mm 7 mps 760 mmHg 59%
    09:00 +11°C° 0 mm 7 mps 760 mmHg 53%
    10:00 +12°C° 0 mm 7 mps 760 mmHg 51%
    11:00 +14°C° 0 mm 6 mps 761 mmHg 48%
    12:00 +15°C° 0 mm 6 mps 761 mmHg 46%
    13:00 +14°C° 0 mm 6 mps 761 mmHg 47%
    14:00 +14°C° 0 mm 6 mps 761 mmHg 48%
    15:00 +14°C° 0 mm 7 mps 761 mmHg 49%
    16:00 +11°C° 0 mm 7 mps 762 mmHg 55%
    17:00 +10°C° 0 mm 7 mps 763 mmHg 60%
    18:00 +9°C° 0 mm 7 mps 764 mmHg 66%
    19:00 +8°C° 0 mm 6 mps 765 mmHg 70%
    20:00 +8°C° 0 mm 6 mps 766 mmHg 74%
    21:00 +7°C° 0 mm 6 mps 767 mmHg 79%
    22:00 +7°C° 0 mm 5 mps 768 mmHg 78%
    23:00 +7°C° 0 mm 4 mps 768 mmHg 78%

    30 March, Thursday

    Time Temperature Precipitation Wind Pressure Humidity
    00:00 +7°C° 0 mm 3 mps 768 mmHg 78%
    01:00 +7°C° 0 mm 3 mps 769 mmHg 78%
    02:00 +7°C° 0 mm 3 mps 769 mmHg 79%
    03:00 +7°C° 0 mm 3 mps 769 mmHg 79%
    04:00 +6°C° 0 mm 4 mps 770 mmHg 80%
    05:00 +6°C° 0 mm 4 mps 770 mmHg 81%
    06:00 +6°C° 0 mm 4 mps 770 mmHg 82%
    07:00 +7°C° 0 mm 4 mps 771 mmHg 76%
    08:00 +8°C° 0 mm 3 mps 771 mmHg 69%
    09:00 +9°C° 0 mm 3 mps 771 mmHg 62%
    10:00 +10°C° 0 mm 4 mps 771 mmHg 60%
    11:00 +10°C° 0 mm 5 mps 770 mmHg 59%
    12:00 +10°C° 0 mm 5 mps 770 mmHg 57%
    13:00 +10°C° 0 mm 6 mps 769 mmHg 59%
    14:00 +10°C° 0 mm 6 mps 768 mmHg 61%
    15:00 +10°C° 0 mm 7 mps 767 mmHg 63%
    16:00 +10°C° 0 mm 7 mps 767 mmHg 66%
    17:00 +9°C° 0 mm 7 mps 766 mmHg 70%
    18:00 +9°C° 0 mm 7 mps 766 mmHg 73%
    19:00 +9°C° 0 mm 7 mps 766 mmHg 75%
    20:00 +8°C° 0 mm 7 mps 765 mmHg 77%
    21:00 +8°C° 0 mm 7 mps 765 mmHg 79%
    22:00 +8°C° 0 mm 7 mps 765 mmHg 80%
    23:00 +8°C° 0 mm 7 mps 764 mmHg 80%

    31 March, Friday

    Time Temperature Precipitation Wind Pressure Humidity
    00:00 +8°C° 0 mm 7 mps 763 mmHg 81%
    01:00 +7°C° 0 mm 6 mps 763 mmHg 82%
    02:00 +7°C° 0 mm 6 mps 762 mmHg 82%
    03:00 +7°C° 0 mm 6 mps 762 mmHg 82%
    04:00 +7°C° 0 mm 6 mps 762 mmHg 81%
    05:00 +7°C° 0 mm 5 mps 762 mmHg 80%
    06:00 +7°C° 0 mm 5 mps 762 mmHg 79%
    07:00 +8°C° 0 mm 4 mps 762 mmHg 70%
    08:00 +11°C° 0 mm 4 mps 762 mmHg 62%
    09:00 +12°C° 0 mm 3 mps 762 mmHg 54%
    10:00 +13°C° 0 mm 4 mps 762 mmHg 52%
    11:00 +14°C° 0 mm 5 mps 762 mmHg 50%
    12:00 +14°C° 0 mm 5 mps 762 mmHg 48%
    13:00 +14°C° 0 mm 7 mps 762 mmHg 49%
    14:00 +13°C° 0 mm 8 mps 762 mmHg 50%
    15:00 +13°C° 0 mm 9 mps 762 mmHg 51%
    16:00 +12°C° 0 mm 10 mps 763 mmHg 54%
    17:00 +11°C° 0 mm 11 mps 763 mmHg 58%
    18:00 +9°C° 0 mm 11 mps 764 mmHg 61%
    19:00 +8°C° 0 mm 12 mps 765 mmHg 67%
    20:00 +8°C° 0 mm 13 mps 766 mmHg 73%
    21:00 +6°C° 0 mm 14 mps 767 mmHg 79%
    22:00 +6°C° 0 mm 14 mps 768 mmHg 75%
    23:00 +5°C° 0 mm 15 mps 768 mmHg 71%

    1 April, Saturday

    Time Temperature Precipitation Wind Pressure Humidity
    00:00 +5°C° 0 mm 15 mps 769 mmHg 67%
    01:00 +4°C° 0 mm 15 mps 769 mmHg 67%
    02:00 +4°C° 0 mm 15 mps 770 mmHg 66%
    03:00 +4°C° 0 mm 15 mps 770 mmHg 65%
    04:00 +3°C° 0.1 mm 14 mps 771 mmHg 66%
    05:00 +3°C° 0.1 mm 13 mps 771 mmHg 67%
    06:00 +3°C° 0.1 mm 12 mps 772 mmHg 68%
    07:00 +3°C° 0.2 mm 11 mps 772 mmHg 68%
    08:00 +2°C° 0.2 mm 10 mps 773 mmHg 68%
    09:00 +2°C° 0.2 mm 9 mps 773 mmHg 68%
    10:00 +3°C° 0.2 mm 9 mps 773 mmHg 67%
    11:00 +4°C° 0.2 mm 8 mps 773 mmHg 66%
    12:00 +4°C° 0.2 mm 7 mps 773 mmHg 66%
    13:00 +4°C° 0 mm 7 mps 773 mmHg 64%
    14:00 +4°C° 0 mm 6 mps 773 mmHg 63%
    15:00 +4°C° 0 mm 6 mps 772 mmHg 62%
    16:00 +5°C° 0 mm 5 mps 772 mmHg 62%
    17:00 +5°C° 0 mm 5 mps 772 mmHg 63%
    18:00 +4°C° 0 mm 4 mps 772 mmHg 63%
    19:00 +4°C° 0 mm 4 mps 772 mmHg 63%
    20:00 +4°C° 0 mm 3 mps 772 mmHg 64%
    21:00 +5°C° 0 mm 2 mps 772 mmHg 64%
    22:00 +5°C° 0 mm 2 mps 772 mmHg 65%
    23:00 +5°C° 0 mm 2 mps 772 mmHg 65%
    Show more